Regional Weather Roundup
Issued by NWS

Home | Current Version | Previous Version | Text Only | Print | Product List | Glossary Off
Versions: 1 2 3 4 5 6 7 8 9 10 11 12 13 14 15 16 17 18 19 20 21 22 23 24 25 26 27 28 29 30 31 32 33 34 35 36 37 38 39 40 41 42 43 44 45 46 47 48 49 50

000
ASUS43 KMKX 191920
RWRWI

WISCONSIN REGIONAL WEATHER ROUNDUP
NATIONAL WEATHER SERVICE MILWAUKEE/SULLIVAN WI
100 PM CST SUN NOV 19 2017

NOTE: "FAIR" INDICATES FEW OR NO CLOUDS BELOW 12,000 FEET WITH NO
SIGNIFICANT WEATHER AND/OR OBSTRUCTIONS TO VISIBILITY.

WIZ001-002-006>008-014>016-023>028-192000-
NORTHWEST WISCONSIN

CITY           SKY/WX    TMP DP  RH WIND       PRES   REMARKS
SUPERIOR ARPT  CLOUDY    25  12  58 W5        29.94F WCI  19
ASHLAND        CLOUDY    24   8  50 SW12      29.94F WCI  13
HAYWARD        CLOUDY    24   8  50 SW7       29.93F WCI  16
SIREN          PTSUNNY   30  13  47 SW9       29.95F WCI  22
CUMBERLAND     SUNNY     30  12  47 SW6       29.95F WCI  24
RICE LAKE      SUNNY     29  14  53 SW7       29.97F WCI  22
CHETEK         SUNNY     29  13  51 W5        29.96F WCI  24
LADYSMITH      CLOUDY    29  12  49 W8        29.95F WCI  21
EAU CLAIRE     SUNNY     31  13  47 W8        29.98F WCI  23
MENOMONIE      SUNNY     34  15  45 SW8       29.98F WCI  27
NEW RICHMOND   MOSUNNY   32  13  45 SW7       29.97F WCI  26
OSCEOLA        MOSUNNY   32  15  50 SW5       29.99F WCI  27
$$

WIZ003>005-009-010-017-018-192000-
NORTH CENTRAL WISCONSIN

CITY           SKY/WX    TMP DP  RH WIND       PRES   REMARKS
MANITOWISH WTR MOSUNNY   21  12  69 W6        29.88F WCI  13
ARBOR VITAE    SUNNY     23  13  67 W6        29.88F WCI  16
WOODRUFF       SUNNY     23  13  67 W6        29.88F WCI  16
RHINELANDER    PTSUNNY  N/A N/A N/A W9        29.89F
EAGLE RIVER    MOSUNNY   21  10  64 W8        29.87F WCI  11
LAND O LAKES   MOSUNNY   19  13  77 W6        29.88F WCI  10
PHILLIPS       CLOUDY    24   9  52 W6        29.91F WCI  17
TOMAHAWK       PTSUNNY   26   8  47 W8        29.91F WCI  17
MEDFORD        MOSUNNY   26  10  48 W9G16     29.92F WCI  17
MERRILL        PTSUNNY   28   9  44 W12       29.93S WCI  18
$$

WIZ029-030-035-036-043>047-192000-
CENTRAL WISCONSIN

CITY           SKY/WX    TMP DP  RH WIND       PRES   REMARKS
WAUSAU         SUNNY     26  10  50 W10       29.93F WCI  16
MOSINEE        MOSUNNY   27  10  50 W12G17    29.96F WCI  16
MARSHFIELD     SUNNY     28   9  44 W9G17     29.94F WCI  19
STEVENS POINT  SUNNY     26   9  48 W12G17    29.97F WCI  15
WAUPACA        SUNNY     32   8  37 W9        29.98F WCI  24
WAUTOMA        NOT AVBL
WISC RAPIDS    SUNNY     29   9  43 W13       29.98F WCI  19
CAMP DOUGLAS   MOSUNNY   30  10  43 W8        30.01F WCI  23
$$

WIZ011>013-019>022-031-037>040-048>050-192000-
NORTHEAST WISCONSIN

CITY           SKY/WX    TMP DP  RH WIND       PRES   REMARKS
ANTIGO         MOSUNNY   25  10  52 W12       29.90F WCI  15
SHAWANO        SUNNY     32  10  40 W10G17    29.94F WCI  23
OCONTO         SUNNY     29  11  46 W9        29.94F WCI  21
STURGEON BAY   PTSUNNY   27  14  58 W14G21    29.93F WCI  16
GREEN BAY      SUNNY     31  17  56 W16G23    29.95F WCI  20
MANITOWOC      SUNNY     30  15  53 W16       29.96S WCI  19
APPLETON       SUNNY     28   7  40 W16G23    29.95F WCI  17
CLINTONVILLE   SUNNY     30   7  37 NW14G21   29.95F WCI  20
OSHKOSH        SUNNY     30  12  47 W10       29.97F WCI  21
$$

WIZ032>034-041-042-053>061-192000-
SOUTHWEST WISCONSIN

CITY           SKY/WX    TMP DP  RH WIND       PRES   REMARKS
LA CROSSE      CLOUDY    34  14  43 VRB5      30.03F WCI  30
SPARTA         CLOUDY    30  14  51 SW6       30.03S WCI  24
VIROQUA        CLOUDY    31  18  59 W9        30.00F WCI  23
BOSCOBEL       SUNNY     35  13  40 W10G16    30.06F WCI  27
PRAIRIE DU CHI SUNNY     34  14  43 SW10      30.07F WCI  26
PLATTEVILLE    MOSUNNY   32  17  54 W10       30.06F WCI  24
$$

WIZ056-057-062-063-064-067-068-192000-
SOUTH CENTRAL WISCONSIN

CITY           SKY/WX    TMP DP  RH WIND       PRES   REMARKS
REEDSBURG      SUNNY     31  13  47 NW5       30.00F WCI  26
BARABOO/DELLS  SUNNY     30  11  45 W8        30.00F WCI  22
LONE ROCK      SUNNY     34  15  46 W14       30.04F WCI  25
MINERAL POINT  SUNNY     34  18  51 W10G17    30.03F WCI  26
MADISON        MOSUNNY   30  12  47 W8G18     30.02F WCI  22
MIDDLETON      SUNNY     34  14  44 W13       30.02F WCI  25
WATERTOWN      SUNNY     31  13  47 W12G17    30.00F WCI  22
MONROE         MOSUNNY   32  14  47 W12       30.03F WCI  23
JANESVILLE     MOSUNNY   34  16  47 W13       30.04F WCI  25
$$

WIZ051-052-058>065-066-070>072-192000-
SOUTHEAST WISCONSIN

CITY           SKY/WX    TMP DP  RH WIND       PRES   REMARKS
MILWAUKEE      MOSUNNY   33  14  45 W14G24    30.01S WCI  23
WAUKESHA       SUNNY     28  12  50 W13G23    30.01F WCI  18
MILWAUKEE/TIMM   N/A     30  10  43 W15G25    30.01S WCI  19
RACINE         SUNNY     33  14  45 NW18G25   30.02F WCI  22
BURLINGTON     SUNNY     34  19  54 NW12      30.02S WCI  26
KENOSHA        SUNNY     33  16  49 NW17G25   30.01F WCI  22
FOND DU LAC    SUNNY     30  10  43 W15G21    29.98F WCI  19
SHEBOYGAN      SUNNY     31  15  52 W14       29.97S WCI  21
WEST BEND      SUNNY     30  12  47 NW13G21   29.98F WCI  20
JUNEAU         SUNNY     29  12  49 W9G17     30.01F WCI  20
$$

LSZ147-162-192000-
LAKE SUPERIOR

STATION/POSITION TIME  TEMP    WIND        PRES    WAVE
                       AIR SEA DIR/SP/G            HT/PER
                 (UTC) (F)     (DEG/KT/KT) (MB)    (FT/S)
DEVILS ISLAND    1900   24     250/ 21/ 25 1013.7F
SAXON HARBOR     1830   24     210/  7/ 11 1013.5F
$$

LMZ867-665-643>646-192000-
LAKE MICHIGAN

STATION/POSITION TIME  TEMP    WIND        PRES    WAVE
                       AIR SEA DIR/SP/G            HT/PER
                 (UTC) (F)     (DEG/KT/KT) (MB)    (FT/S)
N MID LAKE BUOY  1850   28 48  280/ 19/ 23 1013.1S   4/ 5
NORTHPORT PIER   1912   27     290/  9/ 18 1012.9F
KEWAUNEE LAKESHO 1854   28     310/ 11/ 16 1013.4F
SHEBOYGAN LAKESH 1900   29     270/ 17/ 22 1015.4F
PORT WASHINGTON  1830   31     280/ 13/ 20 1016.6S
MILWAUKEE LAKESH 1900   30     290/ 14/ 18   N/A
S MID LAKE BUOY  1850   31 49  310/ 17/ 21 1016.5S   5/ 7
KENOSHA   LAKESH 1900   31     290/ 18/ 22 1015.9
$$

TC  - TEMPERATURE IN CELSIUS
VSB - VISIBILITY IN STATUTE MILES
WCI - WIND CHILL INDEX
HX  - HEAT INDEX





USA.gov is the U.S. government's official web portal to all federal, state and local government web resources and services.